Vorticity
2 2 2 2 2 2 2 1 1 0 0 -0 -0 -1 -1 -0 -0 0 1 1 1 2 1 1 1 1 1 0 0 0 0 0 0 1 0 0 0 -0 -0 -0 -1 -1 -0 -0 0 0 0 -0 -0 -1 -1 -1 -2 -2 -2 -2 -2 -1 -1 0 1 2 3 3 4 4 4 5 6 8 11 14 17 18 20 20 19 16 13 13 13 13 14 15 16 17 17 16 15 15 16 17 17 15 12 11 11 9 4 0 -1 2 7
1 1 1 1 1 1 1 1 1 1 0 0 1 1 1 1 1 1 2 2 3 3 3 3 3 2 2 2 2 2 1 1 1 1 1 1 0 0 0 0 0 1 0 0 -0 1 1 1 1 0 0 -0 -1 -1 -2 -2 -3 -3 -2 -2 -1 0 1 2 3 4 4 4 4 4 6 8 10 12 15 18 20 20 17 15 13 13 12 13 13 15 16 16 15 14 16 17 18 18 14 12 11 13 11 7 3 -0 1
1 1 0 0 0 0 0 0 0 0 0 0 1 1 2 2 2 3 3 3 4 4 5 4 4 3 3 3 3 3 3 3 2 2 2 1 1 0 -0 -0 0 0 -0 -0 -0 0 0 1 1 1 1 0 0 -1 -1 -2 -2 -3 -3 -3 -3 -2 -1 -0 1 2 3 3 4 4 5 5 5 6 7 10 14 18 19 19 17 16 14 12 12 12 14 15 15 14 15 17 19 19 16 13 10 11 13 12 9 5 4
1 1 1 1 1 1 1 1 1 1 1 1 2 2 3 3 4 4 4 4 4 5 5 5 4 4 4 4 4 4 4 3 2 2 2 2 1 0 -0 -1 -1 -1 -1 -1 -0 0 0 1 1 0 0 0 0 -0 -1 -1 -2 -3 -3 -3 -3 -3 -3 -2 -1 -0 1 2 2 3 4 4 4 4 4 5 7 10 14 17 19 20 18 16 12 10 11 13 13 13 14 16 18 20 19 15 11 7 11 14 14 11 10
2 2 1 1 2 2 2 2 2 2 2 3 3 3 4 5 5 5 5 5 5 5 5 5 5 4 5 5 4 4 4 3 3 2 2 1 0 0 1 0 -1 -2 -1 -1 -2 -1 0 0 0 -0 -0 -0 -0 -0 -1 -1 -1 -2 -2 -3 -3 -3 -3 -3 -3 -2 -1 -1 0 1 2 3 3 4 4 3 3 4 7 10 14 18 21 21 18 13 11 11 12 12 12 14 16 19 20 19 15 9 7 10 13 12 12
2 2 2 2 2 2 2 2 3 3 3 3 4 4 5 5 6 6 6 6 6 6 6 6 5 5 5 5 5 4 4 4 3 3 2 1 1 1 1 1 -0 -1 -1 -1 -1 -1 -0 -0 -0 -0 -0 -0 -0 -0 -0 -0 -0 -0 -1 -2 -2 -3 -3 -3 -3 -3 -2 -2 -1 -1 -0 1 2 2 3 3 3 2 3 4 7 11 16 21 22 20 15 13 11 11 11 12 13 17 19 20 19 16 8 5 5 8 9
3 2 2 2 2 2 2 3 3 3 3 4 4 4 5 5 6 7 7 7 7 7 7 7 6 6 6 6 6 6 5 5 4 3 3 2 2 1 1 1 1 -0 -0 -0 0 -1 -1 -0 1 1 0 0 0 0 0 1 1 0 0 0 0 -0 -1 -1 -2 -2 -2 -2 -2 -2 -1 -1 -0 1 1 2 2 2 2 2 3 4 8 14 19 23 21 17 14 12 11 11 12 13 16 18 20 20 16 11 6 3 3
4 3 3 2 2 3 3 3 4 4 4 4 5 5 5 5 6 6 6 7 7 7 7 7 7 7 7 7 7 7 7 6 6 5 5 4 4 3 4 3 3 2 2 2 2 2 1 2 2 2 1 1 1 1 1 1 1 1 2 2 2 2 1 1 0 -0 -1 -1 -1 -1 -1 -1 -1 -1 -0 0 1 2 2 2 2 2 3 7 12 18 21 21 19 15 13 12 12 12 13 15 17 19 19 17 14 12 7
5 4 4 3 3 3 4 4 4 5 5 5 5 6 6 6 6 6 6 6 5 6 6 6 6 6 7 7 7 7 8 8 8 8 7 7 6 6 5 5 4 4 4 4 3 3 2 2 2 2 2 2 2 2 1 1 2 2 2 2 2 3 3 3 2 2 1 1 0 0 -1 -1 -1 -1 -1 -1 -0 1 1 2 2 2 2 3 6 10 16 19 21 19 17 14 13 12 13 14 15 16 18 17 16 14 13
4 4 4 4 3 4 4 4 5 5 5 6 6 7 7 7 7 6 5 5 5 4 4 4 5 5 5 5 6 6 7 8 8 9 9 9 8 8 7 7 6 5 5 4 4 3 2 2 3 3 3 3 3 3 3 3 2 2 1 2 3 3 4 4 4 4 3 2 2 1 1 -0 -1 -1 -1 -1 -1 -1 0 1 2 2 2 2 3 5 9 14 19 21 19 16 14 13 13 13 14 15 15 16 16 15 13
4 4 4 4 4 4 4 4 5 6 6 6 7 7 7 7 7 6 6 5 5 4 4 4 3 3 3 4 4 5 6 7 7 8 9 9 9 9 8 8 7 7 7 6 6 6 5 5 5 5 5 5 5 4 4 4 3 2 3 3 4 4 4 5 5 6 5 5 4 3 3 2 1 -0 -0 -1 -1 -1 0 1 1 2 2 2 3 3 6 10 15 19 19 18 17 15 14 13 13 13 14 14 14 16 14
4 4 4 4 4 4 4 5 5 6 6 7 7 7 8 7 7 7 6 6 5 4 4 3 3 3 3 3 3 4 5 5 6 7 8 8 8 9 8 8 8 8 7 7 7 6 6 6 6 6 5 5 5 5 5 5 5 6 6 6 6 6 6 7 7 8 8 8 8 7 6 5 3 2 2 1 1 1 1 1 2 2 3 3 3 4 6 8 10 14 18 19 18 17 15 14 13 13 13 13 13 13 14
5 4 4 4 5 4 5 5 5 6 6 7 7 7 7 7 7 7 6 6 5 5 4 4 4 3 3 3 4 4 5 5 6 6 7 7 7 8 8 8 8 8 7 7 7 6 6 6 6 5 5 5 6 6 6 7 8 9 9 9 10 10 10 10 11 11 11 12 12 11 10 9 7 6 5 4 3 3 3 3 3 3 4 4 5 5 6 6 8 11 15 18 19 18 17 15 14 13 12 12 12 12 13
5 5 4 5 5 5 5 6 6 6 6 6 7 7 7 7 7 7 6 6 5 5 5 4 4 4 4 4 5 5 5 6 6 6 6 7 7 7 7 7 7 7 7 7 6 5 5 5 5 5 5 5 5 6 7 8 9 10 11 12 13 14 14 14 14 14 14 15 15 15 14 13 11 10 8 7 6 5 5 5 5 5 5 6 6 6 6 7 8 11 13 16 18 18 17 16 15 13 13 12 11 10 11
6 6 5 5 6 6 6 6 6 6 6 6 6 6 7 7 7 7 6 6 5 5 5 5 5 5 5 5 6 6 6 6 6 6 7 7 7 7 7 7 7 7 6 6 6 5 5 4 4 4 4 4 5 5 7 8 9 10 12 13 14 14 14 15 15 16 16 16 16 16 15 14 13 12 10 9 8 7 7 7 8 8 8 8 8 8 8 8 9 11 12 14 16 18 17 16 15 14 13 12 11 10 10
7 7 6 6 6 7 7 6 6 6 6 6 6 7 7 7 7 7 6 6 6 5 5 5 6 6 6 6 6 6 6 6 7 7 7 8 8 8 8 7 7 7 6 6 5 5 4 3 3 3 3 4 4 5 6 7 8 9 10 11 11 12 12 13 13 15 15 15 14 13 13 12 12 11 11 10 10 9 9 9 9 10 10 10 10 10 10 11 11 12 13 14 14 16 16 16 16 15 14 13 12 10 9
8 8 8 8 8 7 7 7 6 6 6 6 7 7 7 7 7 7 6 6 6 6 6 6 6 6 6 6 6 6 6 6 7 7 8 8 9 9 8 8 8 7 6 6 5 4 3 3 3 3 3 3 4 4 6 7 7 8 9 9 10 10 11 11 12 13 13 12 11 10 8 8 7 8 9 10 10 11 11 11 11 11 12 12 12 12 12 12 13 14 15 15 14 15 15 16 15 15 15 14 12 10 9
9 9 9 9 8 8 7 7 6 6 7 7 7 8 8 8 8 7 7 7 7 6 6 6 6 6 6 6 5 5 6 7 7 8 8 9 9 9 9 9 8 8 7 6 5 4 3 3 3 3 4 4 4 5 6 7 7 7 8 9 9 9 10 11 11 12 11 10 8 6 5 4 4 5 6 8 10 11 12 13 13 13 13 14 14 14 14 14 14 15 16 16 15 14 14 14 15 15 15 15 14 12 10
10 10 10 10 9 9 8 8 8 8 8 8 8 9 9 9 9 9 8 8 7 7 7 6 6 6 5 5 5 5 6 7 8 8 8 9 9 9 9 9 9 8 7 6 5 5 4 4 4 4 5 5 6 6 7 7 7 7 7 7 7 6 7 8 7 7 6 6 5 4 3 3 3 3 5 7 9 11 13 14 15 15 15 15 15 15 16 16 16 16 16 16 15 14 13 13 13 14 14 15 15 14 11
11 11 11 10 10 10 10 9 9 9 9 10 10 10 10 10 10 10 9 8 8 7 7 6 6 6 5 5 5 6 6 7 8 8 9 9 9 10 10 10 9 9 8 7 6 5 5 5 5 5 6 6 6 7 7 7 7 6 5 4 3 2 2 1 -0 -1 -1 -0 0 1 1 2 3 4 6 8 9 11 13 15 16 17 17 17 17 16 16 16 16 16 16 16 15 14 13 12 12 13 14 15 16 15 13
11 11 11 11 11 11 11 11 11 11 11 11 11 11 11 11 10 10 9 9 8 7 7 6 6 6 6 6 6 6 7 7 8 8 9 10 10 10 10 10 10 9 8 7 6 5 5 5 5 5 5 5 5 6 6 6 5 4 3 1 -0 -2 -4 -5 -6 -6 -6 -5 -3 -2 0 2 4 5 7 9 11 13 14 15 16 18 18 18 18 18 17 17 17 16 16 15 14 13 12 12 12 13 13 14 16 17 15
11 11 12 12 12 12 12 12 12 12 12 11 11 11 11 10 10 9 9 8 8 7 7 6 6 6 6 6 6 7 7 8 9 10 10 11 11 11 10 10 9 8 7 6 5 5 4 4 4 4 4 4 4 4 4 4 3 3 2 1 0 -1 -2 -3 -4 -3 -3 -3 -1 0 2 4 6 8 9 11 13 14 15 16 16 17 17 18 18 18 18 18 17 16 15 14 12 11 11 12 13 13 13 14 15 17 17
11 12 12 12 12 12 12 12 12 12 11 11 11 10 10 10 9 9 8 8 8 7 7 7 7 6 6 7 8 8 9 10 11 11 11 11 11 10 9 8 7 7 6 5 5 4 4 4 4 4 3 3 3 4 3 3 3 3 4 4 4 4 5 5 5 5 5 6 6 6 7 9 10 12 14 14 15 16 17 17 17 17 17 17 18 18 18 18 18 17 15 13 11 9 10 11 13 14 14 14 15 17 18
12 12 12 12 12 12 12 12 11 11 11 10 10 9 9 9 9 8 8 8 8 7 7 7 7 7 7 8 9 10 11 11 12 12 12 11 10 9 8 7 6 6 5 5 5 4 4 4 4 4 3 3 3 4 4 4 4 5 6 7 8 9 11 12 13 13 14 14 14 14 14 15 16 17 18 18 19 19 19 18 18 17 17 17 17 17 18 18 18 17 15 13 10 8 7 9 11 14 15 15 15 16 18
12 12 12 12 12 12 11 11 11 10 10 10 9 9 9 9 8 8 8 8 8 8 8 8 8 8 8 9 10 11 12 12 12 12 11 10 9 8 7 7 6 6 6 5 4 4 4 4 4 4 3 3 3 3 5 5 6 6 8 10 12 13 15 17 18 19 19 19 19 19 20 20 21 21 22 22 22 21 21 20 19 17 17 16 16 17 17 18 18 17 16 14 11 7 6 6 8 12 15 16 16 16 17
12 11 11 11 11 11 11 11 11 10 10 10 9 9 9 9 9 9 9 9 8 8 8 8 9 9 9 10 10 11 12 12 12 11 10 9 8 7 7 7 7 7 5 4 3 4 4 4 4 4 4 3 3 3 4 6 7 8 10 12 14 16 18 19 20 20 20 21 21 23 23 24 24 24 24 23 23 23 22 21 20 18 17 16 16 16 17 18 18 17 16 14 12 9 6 5 5 7 11 14 16 16 17
12 11 11 11 10 11 11 10 10 11 10 10 10 10 10 9 9 9 9 9 9 9 8 8 9 9 9 10 10 11 11 11 11 10 9 9 8 9 9 8 7 5 4 3 3 4 4 4 4 4 4 5 5 5 5 6 8 10 12 14 16 18 19 19 19 20 21 22 23 24 25 25 25 25 24 23 23 23 22 21 20 19 17 16 15 15 17 18 18 18 16 15 13 11 8 6 4 4 6 10 13 16 16
11 10 9 9 9 10 10 10 10 10 11 11 11 11 10 10 10 10 9 9 9 9 8 8 8 9 9 10 10 11 11 11 10 10 9 9 10 10 10 8 6 3 3 4 5 5 5 4 4 4 5 5 5 6 7 8 10 12 14 16 17 18 18 19 19 20 21 23 24 24 25 26 25 24 23 23 22 22 21 21 21 20 19 17 16 15 16 17 18 18 17 16 14 12 10 8 6 4 4 5 8 12 14
9 8 7 7 7 8 8 9 10 11 11 11 12 11 11 11 11 10 10 10 10 9 9 9 9 9 9 10 10 11 10 10 10 10 10 10 11 10 8 6 4 3 4 5 5 5 5 4 4 4 5 5 6 7 8 10 12 14 15 16 17 17 18 19 21 21 22 23 24 24 24 24 23 23 22 21 21 21 21 20 20 20 19 18 17 16 16 17 18 19 19 17 15 13 11 10 8 6 5 4 5 7 10
6 5 4 4 4 5 7 9 10 12 12 13 13 12 12 12 12 11 11 11 10 10 10 9 9 9 10 10 10 11 11 11 11 11 11 11 11 9 6 4 3 4 5 6 6 5 4 4 4 4 5 6 8 8 9 11 13 15 16 17 17 18 20 21 21 22 23 23 23 23 22 22 21 21 20 20 19 19 19 19 19 19 19 19 19 18 17 17 18 19 20 19 17 14 12 10 9 7 6 5 4 4 6
4 2 2 2 3 5 7 9 11 12 13 13 13 13 13 13 13 12 12 12 11 11 10 10 10 10 10 11 11 11 11 11 11 12 12 11 9 6 4 4 4 6 7 7 6 5 5 5 5 6 6 7 8 9 10 12 14 16 17 18 19 20 20 21 21 22 22 21 21 20 20 19 19 18 18 17 17 17 17 17 17 17 18 18 18 18 17 17 18 19 21 22 21 18 15 12 10 8 7 6 5 4 4
3 2 2 2 3 5 7 9 11 12 13 13 14 14 14 13 13 13 13 12 12 12 11 11 11 10 10 10 10 10 11 11 12 12 11 9 7 4 4 4 5 6 6 6 6 6 6 6 6 7 7 8 9 10 13 15 16 18 19 19 20 20 20 21 21 21 20 19 18 18 17 16 16 15 15 14 14 14 13 13 13 13 14 14 15 15 15 15 16 16 19 21 22 22 19 16 13 9 8 7 6 5 4
3 3 3 3 4 6 8 9 11 12 13 13 14 14 14 14 14 14 13 13 13 12 12 11 11 10 10 10 10 10 11 11 12 12 10 8 6 4 5 6 7 7 6 6 5 6 6 6 6 7 8 9 11 13 16 17 18 19 20 20 20 20 21 20 20 19 18 17 16 15 14 13 13 12 11 11 11 10 10 9 9 9 10 10 10 11 11 12 12 12 14 16 19 21 21 19 17 13 11 8 7 6 5
4 4 3 4 5 7 9 10 12 13 13 13 14 13 14 14 14 14 14 13 13 12 12 11 11 10 10 10 10 11 11 11 11 10 8 7 6 6 7 7 8 7 7 7 6 6 6 6 7 8 9 11 13 16 18 19 19 20 20 20 20 20 19 18 17 17 15 14 13 12 11 11 10 9 9 8 8 7 7 7 6 6 7 7 7 7 7 8 8 8 9 10 12 15 18 19 19 17 14 12 9 7 6
5 5 5 5 6 8 10 11 12 13 13 13 13 13 13 14 14 14 14 13 13 12 12 11 11 10 10 10 11 11 11 11 10 9 7 6 6 7 8 8 8 7 7 7 6 7 7 8 8 9 11 14 16 17 19 19 20 20 20 20 19 18 16 16 15 14 13 12 11 10 9 8 8 7 7 6 6 6 6 6 6 6 6 6 6 6 6 6 6 6 6 6 7 8 11 14 15 16 16 14 12 10 8
6 6 6 7 8 9 11 12 12 13 13 13 13 14 14 14 15 14 14 14 13 13 12 12 11 11 11 11 11 11 11 11 9 8 7 7 8 8 8 7 7 6 6 6 6 7 7 8 9 11 13 16 18 19 19 19 19 19 19 18 16 15 14 13 12 11 10 9 9 8 7 7 6 6 6 6 6 6 6 7 7 7 7 8 8 8 8 8 8 7 7 6 6 5 6 8 10 12 13 14 14 12 9
8 8 9 9 9 11 12 12 13 13 13 13 13 14 14 14 15 15 14 14 14 13 13 12 12 12 11 11 11 11 11 10 9 7 8 8 8 8 7 6 6 6 6 6 7 7 8 9 11 13 15 17 19 19 19 19 18 18 16 15 13 12 12 11 10 9 9 8 7 7 7 7 7 7 7 7 8 8 9 9 10 10 11 11 12 12 12 12 12 11 10 10 9 7 7 6 7 8 10 11 12 12 10
10 10 10 10 11 11 12 13 13 14 14 14 14 14 14 14 15 15 15 14 14 14 13 13 12 12 12 12 11 11 11 10 8 7 7 7 7 7 6 6 6 6 6 7 7 8 9 11 13 15 16 18 19 19 18 17 16 15 13 12 11 10 10 9 8 8 8 8 8 7 8 8 9 9 10 11 12 12 13 14 15 15 16 16 17 17 17 17 17 17 16 15 14 13 11 10 9 8 9 10 10 11 10
10 10 10 11 11 11 12 13 13 14 14 14 14 14 14 15 15 15 15 15 14 14 13 13 12 12 12 12 12 11 10 9 8 7 7 6 6 6 6 6 6 6 6 7 8 9 11 13 15 16 17 18 18 17 16 15 13 12 11 10 10 9 9 8 8 8 9 9 10 10 11 12 13 14 15 17 18 19 20 20 21 21 22 22 22 22 23 23 23 23 22 22 21 20 18 16 14 12 12 11 11 11 10
9 10 10 10 10 11 12 13 13 14 14 14 14 14 15 15 15 15 15 14 14 13 13 12 11 11 11 11 11 11 9 8 7 6 6 6 5 6 6 6 6 6 7 8 9 10 12 14 16 17 17 17 16 15 13 12 11 10 10 9 9 9 9 9 9 10 11 12 14 15 17 18 20 21 23 24 26 26 27 27 27 27 27 27 27 27 27 27 27 28 28 28 27 26 25 23 21 19 17 16 14 13 12
9 9 9 9 10 10 11 12 13 15 15 15 15 15 15 15 14 14 14 13 13 12 11 11 11 11 11 11 11 10 8 6 5 5 5 5 5 5 5 5 6 6 7 9 10 12 14 15 16 16 16 15 14 13 12 11 11 10 9 9 9 9 9 10 12 13 15 17 19 22 24 26 28 29 31 32 32 32 32 32 31 30 29 29 28 28 27 27 28 29 29 30 31 31 30 29 28 26 24 22 20 18 17
9 9 9 9 10 10 11 12 13 15 15 15 15 15 14 14 14 13 13 12 12 11 11 11 11 12 12 11 9 7 6 5 4 4 5 5 5 5 5 6 6 7 8 10 12 13 15 15 16 15 15 14 13 12 11 11 10 9 8 9 10 10 11 13 15 18 21 23 26 29 31 33 34 35 35 35 34 33 32 31 30 28 27 26 25 25 24 24 24 25 26 28 29 30 31 31 31 30 29 28 26 24 22
9 9 9 9 10 10 11 12 13 14 15 15 15 14 13 13 12 12 12 11 11 11 12 12 12 12 12 10 8 6 5 4 4 4 5 5 5 5 5 6 7 9 10 11 13 14 15 15 15 14 14 13 12 11 10 10 9 8 8 9 11 13 16 18 21 24 27 30 33 34 36 36 36 34 33 32 30 29 28 27 26 25 24 23 22 22 21 20 20 20 21 22 24 25 27 28 29 30 30 30 30 29 27
9 9 9 9 9 10 10 11 13 14 14 14 14 13 13 13 12 12 12 12 12 12 12 12 12 12 11 9 7 5 4 4 4 4 4 4 5 5 6 7 9 10 11 13 14 15 15 15 14 14 13 12 11 10 9 8 8 9 10 11 14 17 21 25 27 30 33 35 37 36 35 34 32 29 27 26 24 23 23 23 23 23 23 23 23 23 22 22 21 20 20 20 20 22 23 25 26 27 28 29 30 30 30
9 9 9 9 9 9 10 11 12 13 14 14 14 14 14 13 13 13 13 13 13 13 13 13 13 12 10 7 5 4 4 3 4 4 4 4 5 6 7 9 10 12 13 14 15 15 15 14 14 13 12 10 9 8 8 8 8 10 12 16 19 23 27 31 33 35 36 36 35 33 30 28 25 23 22 22 22 22 23 23 24 25 26 26 26 27 27 27 26 25 24 23 23 23 23 24 25 26 27 28 29 29 30
9 10 10 10 9 9 10 11 12 13 13 14 15 15 15 15 14 14 13 13 13 13 13 13 13 11 8 6 4 3 3 3 3 3 4 5 6 8 9 10 12 13 14 14 14 14 14 13 13 12 10 9 8 7 8 9 10 13 17 21 25 29 33 35 37 37 35 33 30 27 24 22 21 21 21 22 23 24 24 25 25 26 26 26 27 27 27 27 27 27 26 26 25 25 25 25 25 26 27 28 28 29 29
10 10 10 10 10 10 10 10 11 13 14 15 16 16 16 16 15 14 13 13 13 13 13 12 11 9 7 5 3 3 3 3 3 3 4 6 7 9 11 12 13 13 14 14 14 14 13 12 11 10 8 7 7 7 9 11 13 17 22 27 31 35 37 38 37 34 30 27 24 21 20 20 21 22 23 23 24 24 23 23 22 22 22 22 23 23 23 23 23 23 23 23 23 23 23 23 24 24 25 26 28 29 29
10 10 10 10 10 10 10 10 11 13 15 16 17 17 16 15 15 14 13 13 13 13 13 11 10 7 5 3 2 2 2 2 3 4 6 7 9 10 12 13 13 13 13 13 14 13 12 11 10 8 7 7 8 9 11 14 18 23 28 32 36 38 38 36 32 28 24 21 20 19 20 21 22 23 23 22 21 20 19 19 19 19 19 20 21 21 22 22 22 22 22 22 22 22 22 21 21 22 22 23 25 26 28
10 10 10 10 10 9 9 10 11 13 16 17 18 17 16 15 14 14 13 13 13 13 12 10 8 5 3 2 1 1 2 3 4 5 7 9 10 12 12 12 12 13 13 13 13 12 11 10 8 7 7 8 9 11 14 18 23 28 33 36 39 39 36 31 26 22 20 19 19 20 22 22 22 21 20 19 18 17 17 18 19 20 22 23 24 25 25 25 25 25 25 25 24 24 24 23 23 22 22 22 22 23 24
10 10 10 10 9 9 9 10 12 14 17 18 18 16 15 14 14 13 13 13 13 12 10 8 6 4 2 1 1 2 3 4 5 7 9 10 11 12 12 12 12 13 13 12 12 12 10 9 8 7 8 9 11 13 17 22 28 34 37 39 38 36 30 25 21 18 18 19 20 21 21 20 19 17 16 15 16 17 18 20 22 24 25 26 27 27 28 28 28 28 28 28 28 28 27 27 27 26 25 24 23 23 23
10 10 10 9 9 8 9 10 12 15 17 18 17 16 15 14 13 13 13 12 12 11 9 6 4 3 1 1 1 2 3 5 6 8 10 11 12 12 11 11 12 12 12 12 11 11 9 8 8 8 9 10 12 16 22 28 34 38 39 38 35 30 24 20 18 18 19 20 21 20 19 17 15 13 13 14 16 18 20 22 22 22 22 22 22 23 24 24 25 26 27 28 29 29 30 30 30 30 30 29 28 26 25
10 10 10 9 9 8 9 11 14 16 17 17 17 15 14 14 13 13 13 12 11 10 7 5 3 2 1 1 2 3 4 6 8 10 10 11 11 11 11 12 12 12 12 12 11 9 9 8 8 8 9 12 16 21 27 33 37 40 38 35 29 23 20 18 18 19 20 20 19 17 15 13 12 12 13 15 17 19 19 19 18 16 15 15 14 15 17 18 20 22 24 25 26 28 30 31 33 33 33 33 32 31 30
9 9 9 9 9 9 11 13 15 17 17 17 16 15 14 14 14 13 13 12 11 9 6 4 3 2 1 1 3 4 6 7 9 10 11 11 10 11 12 12 12 12 12 11 10 9 9 8 8 9 11 15 20 26 32 37 39 39 35 29 23 18 18 18 19 20 20 18 16 14 12 11 11 12 14 15 16 16 15 14 13 11 10 9 9 10 11 13 15 17 19 21 23 26 29 32 35 37 38 38 38 37 35
9 9 9 9 10 10 12 14 16 17 17 17 16 15 15 14 14 13 13 11 9 7 5 3 2 1 1 2 4 6 7 8 9 9 10 11 11 11 12 13 13 12 11 10 9 9 8 8 9 11 14 19 25 31 37 39 40 37 30 24 19 16 17 19 20 20 18 16 13 11 11 11 12 13 14 15 15 14 13 12 11 10 9 9 9 10 11 12 13 15 17 19 22 25 28 32 36 40 42 43 43 43 42
9 10 10 10 11 12 13 15 17 17 17 16 15 15 14 14 13 13 12 10 8 6 4 3 2 1 2 3 5 7 8 8 9 10 10 11 12 12 13 13 12 12 11 10 9 9 8 9 10 13 17 23 29 36 40 40 37 31 24 19 16 16 18 19 19 18 16 13 11 10 11 11 13 14 15 15 15 14 13 13 12 11 11 11 11 11 12 12 13 14 16 17 20 22 24 27 31 36 41 44 45 46 46
10 11 11 12 12 13 15 16 17 17 16 15 14 14 14 14 13 13 11 9 6 4 3 2 1 2 3 5 6 7 8 9 10 10 11 12 12 13 13 13 12 11 10 10 9 8 8 10 12 15 21 27 34 40 41 38 33 25 19 16 15 17 19 20 18 16 13 11 10 10 11 12 14 15 15 15 15 15 14 14 13 13 13 14 14 13 13 12 12 12 13 13 14 15 15 18 21 25 30 36 41 45 47
11 11 12 13 14 15 16 16 16 16 15 14 14 13 13 14 13 12 9 7 5 3 2 1 2 3 4 5 6 7 9 10 11 11 11 12 13 13 13 12 11 11 10 9 9 8 9 11 14 18 25 32 38 42 40 34 27 19 16 15 16 19 20 19 17 14 12 11 11 11 12 13 14 14 14 15 15 15 14 14 13 13 14 15 16 15 14 13 12 11 10 9 8 8 8 9 10 12 16 20 26 32 38
12 12 14 15 15 16 16 16 16 15 14 14 13 13 14 14 13 11 8 6 4 3 2 2 3 4 5 6 7 9 10 11 12 12 12 12 13 13 12 12 11 10 9 9 8 9 10 12 17 23 30 36 41 42 36 29 21 15 14 16 18 20 19 18 16 13 12 11 12 13 14 14 14 14 14 15 15 14 14 13 13 13 14 15 16 16 15 14 13 12 11 9 7 6 5 5 6 6 7 9 11 15 21
12 13 15 16 16 16 16 16 16 15 14 13 13 14 14 13 12 10 7 5 3 2 3 3 4 5 6 8 9 10 11 11 12 12 12 13 13 13 12 12 11 10 9 8 8 9 11 15 20 27 34 39 41 39 31 23 16 13 15 17 19 21 19 17 14 12 11 11 12 13 13 13 14 14 14 14 14 14 13 12 12 12 13 14 14 15 14 13 12 11 10 9 8 7 7 6 7 7 6 6 6 7 9
Height
5751 5750 5749 5748 5747 5746 5745 5744 5743 5742 5741 5739 5738 5737 5736 5735 5734 5733 5732 5731 5730 5729 5727 5726 5725 5723 5722 5720 5719 5717 5716 5715 5713 5712 5711 5709 5708 5707 5706 5704 5703 5702 5700 5699 5697 5696 5694 5693 5692 5690 5689 5688 5687 5686 5684 5683 5682 5681 5680 5679 5677 5676 5675 5673 5672 5671 5670 5669 5668 5667 5666 5666 5666 5666 5666 5667 5667 5667 5667 5667 5667 5667 5667 5667 5666 5666 5665 5665 5664 5664 5665 5666 5666 5666 5667 5667 5668 5669 5671 5672 5674 5674 5674
5750 5749 5748 5747 5746 5745 5744 5742 5741 5740 5739 5738 5737 5735 5734 5733 5732 5731 5730 5729 5728 5727 5725 5724 5723 5721 5720 5718 5717 5715 5714 5712 5711 5710 5709 5707 5706 5705 5703 5702 5701 5699 5698 5696 5695 5693 5692 5691 5689 5688 5687 5685 5684 5682 5681 5680 5679 5678 5677 5676 5674 5673 5672 5671 5669 5667 5666 5665 5664 5663 5662 5661 5661 5660 5660 5661 5661 5662 5662 5662 5662 5663 5663 5662 5662 5662 5661 5661 5660 5659 5660 5661 5662 5662 5662 5663 5663 5664 5665 5667 5668 5669 5670
5748 5747 5746 5745 5744 5743 5742 5741 5739 5738 5737 5736 5735 5733 5732 5731 5730 5729 5728 5727 5725 5724 5723 5722 5720 5719 5717 5716 5714 5713 5712 5710 5709 5707 5706 5705 5704 5702 5701 5700 5699 5697 5696 5694 5692 5691 5690 5688 5687 5686 5684 5683 5682 5680 5678 5677 5676 5675 5674 5672 5671 5670 5669 5667 5666 5665 5663 5662 5660 5659 5658 5657 5656 5655 5655 5655 5655 5656 5657 5657 5657 5657 5658 5658 5657 5657 5657 5657 5656 5655 5655 5656 5657 5658 5658 5658 5659 5659 5660 5661 5662 5664 5664
5746 5745 5744 5742 5742 5741 5740 5738 5737 5736 5735 5733 5732 5732 5730 5729 5728 5727 5725 5724 5723 5722 5720 5719 5717 5716 5715 5713 5712 5711 5709 5708 5706 5705 5704 5702 5701 5700 5699 5697 5696 5695 5693 5692 5690 5689 5687 5686 5685 5683 5682 5680 5679 5677 5676 5674 5673 5672 5670 5669 5668 5667 5665 5664 5663 5662 5660 5659 5657 5655 5654 5653 5652 5651 5650 5649 5649 5650 5651 5651 5652 5652 5652 5653 5653 5652 5652 5652 5651 5651 5650 5650 5651 5653 5654 5654 5655 5655 5655 5655 5657 5658 5659
5743 5742 5741 5740 5739 5738 5737 5736 5735 5733 5732 5731 5730 5729 5728 5727 5726 5724 5723 5722 5720 5719 5717 5716 5715 5713 5712 5711 5709 5708 5707 5705 5704 5702 5701 5700 5698 5697 5696 5695 5693 5692 5691 5689 5687 5686 5685 5683 5682 5680 5679 5677 5676 5675 5673 5672 5670 5669 5667 5666 5665 5663 5662 5661 5659 5658 5657 5655 5654 5652 5650 5649 5648 5647 5646 5645 5644 5644 5645 5645 5646 5647 5647 5647 5647 5647 5647 5647 5647 5647 5646 5646 5646 5647 5648 5649 5650 5651 5650 5650 5651 5654 5654
5742 5740 5739 5738 5737 5736 5735 5733 5732 5731 5730 5729 5727 5727 5725 5724 5723 5722 5721 5719 5718 5716 5715 5713 5712 5711 5709 5708 5707 5705 5703 5702 5701 5699 5698 5697 5696 5694 5693 5692 5690 5689 5688 5686 5685 5683 5682 5680 5679 5677 5676 5674 5673 5671 5670 5668 5667 5666 5664 5663 5661 5660 5658 5657 5656 5654 5653 5651 5650 5648 5647 5645 5644 5642 5641 5640 5639 5639 5639 5639 5640 5641 5642 5642 5642 5642 5642 5642 5642 5642 5642 5641 5641 5641 5642 5643 5644 5645 5646 5646 5647 5647 5649
5739 5738 5737 5736 5734 5733 5732 5731 5730 5729 5727 5727 5725 5724 5723 5722 5721 5719 5718 5717 5715 5714 5712 5711 5709 5707 5706 5705 5703 5702 5701 5699 5698 5696 5695 5693 5692 5691 5690 5688 5687 5685 5684 5682 5681 5680 5678 5677 5676 5674 5672 5671 5669 5667 5666 5665 5663 5662 5661 5659 5657 5656 5655 5653 5652 5650 5649 5647 5646 5644 5642 5641 5639 5638 5637 5636 5634 5634 5633 5633 5634 5635 5637 5637 5637 5637 5637 5637 5637 5637 5637 5637 5637 5637 5637 5637 5638 5639 5641 5642 5643 5643 5642
5737 5736 5734 5733 5732 5731 5730 5728 5727 5726 5725 5724 5723 5722 5721 5719 5718 5717 5716 5714 5712 5711 5709 5707 5706 5704 5703 5702 5700 5699 5697 5696 5694 5693 5692 5690 5689 5687 5686 5685 5683 5682 5680 5679 5677 5676 5675 5673 5672 5670 5669 5667 5666 5664 5662 5661 5659 5657 5656 5655 5653 5652 5651 5649 5648 5646 5645 5643 5642 5640 5638 5637 5635 5633 5632 5631 5629 5628 5627 5627 5628 5629 5630 5631 5632 5632 5633 5632 5632 5632 5632 5632 5632 5632 5632 5632 5632 5633 5634 5635 5637 5638 5639
5734 5733 5732 5731 5729 5728 5727 5726 5725 5724 5722 5721 5720 5719 5718 5717 5716 5714 5712 5711 5709 5708 5706 5704 5703 5701 5700 5698 5697 5695 5694 5692 5691 5689 5688 5687 5685 5684 5682 5681 5679 5678 5676 5675 5673 5672 5671 5669 5668 5667 5665 5663 5662 5660 5658 5657 5655 5654 5652 5650 5649 5648 5646 5645 5644 5642 5641 5640 5638 5636 5635 5633 5631 5629 5628 5626 5625 5623 5622 5622 5621 5622 5623 5624 5626 5627 5627 5627 5627 5627 5627 5627 5628 5628 5628 5628 5627 5627 5628 5629 5630 5632 5633
5732 5731 5729 5728 5727 5726 5724 5723 5722 5721 5719 5718 5717 5716 5715 5714 5712 5711 5709 5708 5707 5705 5703 5701 5700 5698 5696 5695 5693 5692 5690 5689 5687 5686 5684 5683 5681 5680 5678 5677 5675 5674 5672 5671 5669 5668 5667 5665 5664 5662 5661 5659 5658 5657 5655 5653 5652 5650 5648 5646 5645 5643 5642 5640 5639 5638 5637 5636 5634 5632 5631 5629 5627 5626 5624 5622 5620 5619 5617 5616 5615 5615 5616 5617 5619 5620 5621 5622 5622 5622 5622 5622 5622 5623 5624 5623 5623 5622 5623 5624 5625 5626 5627
5729 5728 5727 5725 5724 5723 5722 5720 5719 5718 5717 5715 5714 5713 5712 5711 5709 5708 5706 5705 5703 5702 5700 5698 5696 5695 5693 5691 5690 5688 5687 5685 5683 5682 5680 5679 5677 5676 5674 5672 5671 5669 5668 5666 5665 5663 5662 5661 5659 5658 5656 5655 5653 5652 5651 5649 5647 5646 5644 5642 5641 5639 5637 5636 5634 5633 5632 5631 5630 5628 5627 5625 5623 5622 5620 5618 5616 5614 5612 5611 5610 5609 5609 5610 5611 5612 5614 5616 5617 5617 5617 5617 5617 5617 5618 5619 5619 5618 5618 5618 5619 5620 5620
5727 5726 5724 5723 5721 5720 5719 5717 5716 5715 5714 5712 5711 5710 5709 5707 5706 5705 5703 5702 5700 5698 5697 5695 5693 5691 5689 5687 5686 5684 5683 5681 5679 5678 5676 5674 5673 5671 5670 5668 5667 5665 5664 5662 5661 5659 5657 5656 5655 5654 5652 5650 5648 5647 5645 5644 5642 5641 5639 5637 5636 5634 5632 5631 5629 5627 5626 5625 5624 5623 5622 5621 5619 5617 5616 5614 5612 5610 5608 5607 5605 5604 5603 5603 5604 5605 5607 5608 5610 5611 5611 5611 5611 5612 5613 5614 5614 5614 5614 5614 5614 5614 5615
5725 5723 5722 5720 5718 5717 5716 5714 5713 5712 5711 5709 5708 5707 5706 5704 5703 5701 5700 5698 5697 5695 5693 5691 5690 5687 5686 5684 5682 5680 5679 5677 5675 5673 5672 5670 5668 5667 5666 5664 5662 5661 5660 5658 5657 5655 5653 5652 5651 5649 5647 5645 5643 5642 5640 5638 5637 5636 5634 5632 5631 5629 5627 5626 5624 5622 5621 5619 5618 5617 5616 5615 5614 5613 5611 5609 5608 5606 5604 5602 5601 5599 5597 5597 5597 5597 5599 5600 5602 5604 5605 5605 5605 5606 5607 5607 5608 5609 5610 5610 5609 5608 5609
5722 5720 5719 5717 5716 5714 5713 5712 5710 5709 5708 5707 5705 5704 5702 5701 5699 5698 5696 5695 5693 5691 5689 5688 5686 5684 5682 5680 5678 5677 5675 5673 5671 5669 5667 5666 5664 5662 5661 5660 5658 5657 5655 5654 5652 5651 5649 5647 5646 5644 5642 5640 5638 5637 5635 5634 5632 5630 5629 5627 5625 5623 5622 5620 5619 5617 5616 5614 5612 5611 5610 5609 5608 5607 5606 5604 5603 5601 5599 5597 5596 5594 5592 5592 5591 5590 5591 5592 5595 5597 5598 5598 5599 5600 5600 5601 5602 5603 5604 5604 5604 5604 5604
5719 5717 5716 5714 5713 5712 5710 5709 5707 5706 5705 5703 5702 5701 5699 5697 5696 5694 5692 5691 5689 5687 5686 5684 5682 5680 5678 5676 5674 5672 5670 5668 5667 5665 5663 5662 5660 5658 5657 5655 5654 5652 5651 5649 5647 5646 5644 5643 5641 5640 5638 5636 5634 5632 5631 5629 5627 5626 5624 5622 5621 5619 5617 5616 5614 5612 5611 5609 5607 5605 5604 5603 5602 5601 5599 5598 5597 5596 5595 5593 5591 5589 5587 5586 5585 5584 5584 5585 5586 5588 5590 5592 5592 5593 5593 5594 5595 5597 5598 5598 5599 5599 5599
5716 5715 5713 5712 5710 5709 5707 5706 5704 5703 5702 5700 5699 5697 5696 5694 5692 5691 5689 5687 5685 5683 5682 5680 5678 5676 5674 5672 5670 5668 5666 5664 5662 5661 5659 5657 5656 5654 5652 5651 5649 5648 5646 5645 5643 5642 5640 5638 5637 5635 5633 5631 5629 5627 5626 5624 5623 5621 5620 5618 5617 5615 5613 5612 5610 5608 5606 5604 5602 5601 5599 5597 5596 5594 5593 5592 5591 5590 5589 5587 5586 5584 5582 5581 5579 5578 5577 5577 5578 5580 5582 5584 5586 5587 5587 5588 5588 5590 5591 5592 5593 5593 5594
5713 5712 5710 5709 5707 5706 5704 5703 5701 5700 5698 5697 5695 5694 5692 5690 5688 5687 5685 5683 5682 5680 5678 5676 5675 5672 5670 5668 5666 5664 5662 5660 5658 5657 5655 5653 5652 5650 5648 5646 5645 5643 5642 5640 5639 5637 5636 5634 5632 5630 5628 5627 5625 5623 5621 5620 5618 5617 5615 5614 5612 5611 5609 5608 5606 5604 5602 5600 5598 5596 5594 5592 5591 5589 5587 5586 5584 5583 5582 5581 5580 5579 5577 5576 5574 5572 5572 5571 5571 5572 5573 5576 5578 5579 5580 5581 5582 5583 5585 5586 5587 5587 5588
5711 5709 5707 5706 5704 5703 5701 5700 5698 5697 5695 5694 5692 5690 5688 5687 5685 5683 5681 5679 5678 5676 5674 5672 5671 5668 5666 5664 5662 5659 5657 5656 5654 5652 5650 5649 5647 5645 5643 5642 5640 5639 5637 5636 5634 5633 5631 5629 5627 5626 5624 5622 5620 5618 5617 5615 5613 5612 5610 5609 5607 5606 5604 5603 5601 5599 5597 5595 5593 5591 5589 5587 5585 5584 5582 5580 5578 5577 5576 5575 5574 5573 5572 5571 5569 5567 5566 5565 5564 5564 5565 5567 5570 5572 5573 5574 5575 5577 5578 5579 5580 5581 5582
5708 5707 5705 5703 5702 5700 5698 5697 5695 5693 5692 5690 5689 5687 5685 5683 5681 5679 5678 5676 5674 5672 5671 5669 5667 5664 5662 5660 5657 5655 5653 5652 5650 5648 5646 5644 5642 5641 5639 5637 5636 5634 5632 5631 5629 5628 5626 5625 5623 5621 5619 5617 5616 5614 5612 5610 5608 5607 5605 5603 5602 5600 5598 5597 5595 5593 5592 5590 5587 5585 5583 5581 5579 5578 5576 5575 5573 5571 5569 5568 5567 5566 5565 5565 5563 5562 5561 5559 5558 5557 5558 5559 5561 5563 5566 5567 5568 5569 5570 5572 5573 5575 5576
5706 5704 5702 5701 5699 5697 5696 5694 5692 5690 5688 5687 5685 5683 5682 5680 5678 5676 5674 5672 5671 5669 5667 5665 5662 5660 5658 5655 5653 5651 5649 5647 5645 5643 5642 5640 5638 5636 5634 5633 5631 5629 5628 5626 5624 5623 5621 5619 5617 5616 5613 5612 5610 5608 5606 5604 5602 5601 5599 5597 5596 5594 5592 5590 5588 5587 5584 5582 5580 5578 5576 5574 5572 5571 5570 5568 5567 5565 5563 5562 5560 5559 5558 5557 5557 5557 5556 5554 5553 5551 5551 5551 5552 5555 5557 5560 5561 5562 5563 5565 5567 5568 5569
5703 5701 5699 5698 5696 5694 5693 5691 5689 5687 5685 5683 5682 5680 5678 5676 5674 5672 5670 5668 5667 5665 5663 5661 5658 5656 5654 5651 5649 5647 5645 5643 5641 5639 5637 5635 5633 5632 5630 5628 5626 5624 5622 5621 5619 5617 5616 5614 5612 5610 5608 5606 5604 5602 5600 5598 5597 5595 5593 5591 5590 5587 5585 5583 5581 5579 5577 5575 5572 5571 5568 5567 5565 5563 5562 5561 5560 5559 5557 5556 5554 5552 5551 5550 5550 5550 5549 5549 5548 5546 5545 5544 5545 5546 5548 5551 5553 5555 5556 5558 5559 5561 5562
5700 5698 5697 5695 5693 5691 5689 5688 5686 5684 5682 5680 5678 5676 5674 5672 5670 5668 5667 5665 5663 5661 5659 5657 5654 5652 5650 5647 5645 5642 5640 5638 5637 5634 5632 5631 5629 5627 5625 5623 5621 5619 5617 5615 5613 5612 5610 5608 5607 5605 5602 5600 5598 5596 5594 5592 5590 5588 5587 5585 5583 5581 5578 5576 5574 5572 5569 5567 5565 5562 5561 5559 5557 5556 5554 5554 5553 5552 5551 5549 5547 5546 5545 5543 5542 5542 5542 5542 5542 5541 5540 5539 5538 5538 5540 5542 5545 5547 5549 5550 5552 5553 5555
5697 5696 5694 5692 5690 5688 5686 5684 5682 5680 5678 5676 5674 5672 5670 5668 5666 5664 5662 5661 5659 5657 5655 5652 5650 5647 5645 5643 5640 5638 5636 5634 5632 5630 5628 5626 5624 5622 5620 5618 5616 5613 5611 5609 5608 5606 5605 5603 5601 5599 5597 5594 5592 5590 5588 5586 5583 5582 5580 5578 5576 5574 5572 5569 5567 5565 5562 5560 5558 5555 5553 5551 5550 5548 5547 5546 5545 5544 5543 5542 5541 5539 5538 5537 5536 5535 5535 5535 5535 5535 5535 5534 5532 5532 5532 5533 5536 5538 5541 5542 5544 5546 5547
5694 5692 5691 5689 5687 5685 5683 5681 5679 5677 5675 5672 5670 5668 5666 5664 5662 5660 5658 5656 5654 5652 5650 5647 5645 5642 5640 5638 5636 5633 5631 5629 5627 5625 5623 5621 5619 5617 5614 5612 5610 5607 5606 5604 5602 5601 5599 5597 5595 5593 5591 5588 5586 5583 5581 5579 5577 5575 5573 5571 5569 5567 5565 5563 5561 5559 5557 5554 5552 5549 5547 5544 5542 5541 5539 5538 5537 5536 5535 5534 5533 5532 5531 5530 5529 5529 5528 5528 5528 5528 5528 5527 5527 5527 5526 5526 5527 5529 5532 5534 5536 5538 5540
5691 5689 5687 5685 5683 5681 5679 5677 5675 5673 5671 5668 5666 5664 5662 5660 5658 5656 5654 5652 5650 5647 5645 5642 5640 5637 5635 5633 5631 5628 5626 5624 5622 5620 5618 5616 5613 5611 5608 5606 5604 5602 5600 5599 5597 5595 5593 5591 5589 5587 5584 5582 5580 5577 5575 5572 5570 5568 5566 5564 5562 5560 5558 5556 5554 5552 5550 5547 5545 5542 5540 5537 5535 5533 5532 5530 5529 5528 5527 5526 5526 5525 5523 5523 5522 5522 5521 5521 5521 5521 5521 5521 5521 5521 5521 5520 5520 5521 5523 5526 5528 5530 5532
5687 5685 5683 5682 5679 5677 5675 5673 5671 5669 5667 5665 5662 5660 5658 5656 5654 5652 5649 5647 5645 5642 5640 5637 5635 5632 5630 5628 5626 5623 5621 5619 5617 5615 5612 5610 5607 5605 5603 5601 5598 5597 5595 5594 5592 5590 5587 5585 5583 5581 5578 5576 5573 5571 5568 5566 5563 5561 5559 5557 5555 5553 5551 5549 5547 5545 5542 5540 5538 5536 5533 5530 5528 5526 5524 5522 5521 5520 5519 5518 5517 5517 5516 5515 5514 5514 5514 5514 5514 5514 5514 5514 5514 5514 5514 5514 5514 5514 5515 5517 5519 5522 5523
5684 5682 5680 5678 5676 5674 5672 5670 5667 5665 5663 5661 5658 5656 5654 5652 5649 5647 5645 5642 5640 5637 5635 5632 5630 5627 5625 5623 5620 5618 5616 5613 5611 5609 5607 5604 5602 5600 5597 5595 5593 5592 5590 5588 5587 5584 5582 5579 5577 5575 5572 5569 5567 5564 5561 5559 5556 5554 5552 5550 5548 5546 5543 5541 5539 5537 5535 5533 5531 5528 5526 5523 5521 5518 5517 5515 5513 5512 5511 5510 5509 5509 5508 5507 5507 5507 5506 5507 5507 5507 5507 5507 5507 5507 5508 5508 5508 5509 5509 5509 5511 5513 5515
5680 5678 5676 5674 5672 5670 5668 5666 5663 5661 5659 5657 5654 5652 5649 5647 5644 5642 5639 5637 5634 5632 5630 5627 5625 5622 5620 5617 5615 5612 5610 5607 5605 5603 5601 5599 5596 5594 5592 5590 5589 5587 5585 5583 5581 5578 5576 5574 5571 5569 5566 5563 5561 5558 5555 5552 5549 5547 5545 5542 5540 5538 5536 5534 5531 5529 5527 5525 5523 5520 5518 5516 5514 5512 5509 5508 5506 5505 5504 5503 5502 5501 5500 5500 5499 5499 5499 5499 5499 5499 5500 5500 5500 5500 5501 5502 5502 5502 5503 5503 5504 5505 5507
5677 5674 5672 5671 5668 5666 5664 5662 5659 5657 5654 5652 5650 5647 5644 5642 5639 5637 5634 5632 5629 5627 5624 5621 5619 5617 5614 5612 5609 5607 5604 5602 5600 5597 5595 5593 5591 5589 5587 5585 5584 5582 5580 5577 5575 5573 5570 5567 5565 5562 5560 5557 5554 5552 5549 5546 5543 5541 5538 5535 5533 5531 5528 5526 5523 5521 5519 5517 5515 5513 5511 5509 5507 5505 5502 5501 5499 5498 5497 5496 5495 5494 5493 5492 5492 5492 5491 5491 5491 5491 5492 5492 5493 5493 5494 5495 5495 5496 5496 5497 5498 5498 5499
5673 5671 5669 5667 5664 5662 5660 5657 5655 5652 5650 5647 5645 5642 5639 5637 5634 5632 5629 5627 5624 5621 5618 5616 5613 5611 5608 5606 5603 5601 5599 5597 5594 5592 5590 5587 5586 5584 5582 5581 5579 5577 5575 5572 5570 5567 5564 5562 5559 5556 5553 5551 5548 5545 5542 5540 5537 5534 5532 5529 5526 5523 5521 5519 5516 5513 5511 5509 5507 5505 5503 5501 5500 5498 5496 5494 5492 5491 5490 5488 5487 5487 5486 5485 5484 5484 5484 5483 5483 5483 5484 5484 5485 5486 5487 5487 5488 5488 5489 5491 5491 5491 5492
5669 5667 5665 5663 5660 5658 5655 5653 5650 5648 5645 5642 5640 5637 5634 5632 5629 5627 5624 5621 5618 5616 5613 5610 5607 5605 5602 5600 5598 5595 5593 5591 5589 5586 5584 5582 5581 5579 5577 5576 5574 5571 5569 5567 5564 5561 5558 5556 5553 5550 5547 5544 5541 5538 5536 5533 5530 5527 5525 5522 5519 5517 5514 5511 5509 5506 5504 5501 5499 5497 5496 5494 5492 5491 5489 5487 5486 5484 5482 5482 5481 5480 5478 5478 5477 5477 5477 5476 5476 5476 5476 5477 5477 5478 5479 5479 5480 5481 5482 5483 5484 5485 5486
5665 5663 5661 5658 5656 5653 5651 5648 5645 5643 5640 5637 5635 5632 5629 5627 5624 5621 5618 5616 5613 5610 5607 5605 5602 5599 5597 5595 5592 5590 5587 5585 5583 5581 5579 5577 5576 5574 5572 5570 5568 5566 5563 5561 5558 5555 5552 5550 5547 5543 5541 5538 5535 5532 5529 5526 5523 5521 5518 5515 5512 5509 5507 5504 5501 5499 5496 5494 5492 5490 5488 5487 5485 5484 5482 5481 5479 5477 5476 5474 5473 5472 5472 5471 5470 5469 5469 5468 5468 5468 5468 5469 5469 5470 5471 5471 5472 5473 5474 5475 5476 5478 5479
5661 5659 5656 5654 5651 5649 5646 5643 5640 5638 5635 5632 5629 5627 5624 5621 5618 5616 5613 5610 5607 5605 5602 5599 5597 5594 5592 5589 5587 5585 5582 5580 5578 5576 5574 5572 5571 5569 5567 5565 5563 5561 5558 5555 5552 5550 5547 5543 5540 5537 5534 5531 5528 5525 5522 5519 5516 5513 5511 5508 5505 5502 5499 5497 5494 5491 5489 5486 5484 5482 5481 5479 5477 5476 5474 5473 5472 5470 5469 5467 5466 5465 5464 5463 5462 5462 5461 5461 5460 5460 5461 5461 5461 5462 5463 5463 5464 5465 5466 5467 5468 5470 5471
5657 5654 5652 5649 5647 5644 5641 5638 5635 5632 5630 5627 5624 5621 5618 5616 5613 5610 5607 5604 5602 5599 5597 5594 5592 5589 5587 5584 5582 5579 5577 5575 5573 5571 5569 5567 5566 5564 5562 5560 5557 5555 5552 5550 5547 5543 5540 5537 5534 5530 5527 5524 5521 5518 5515 5512 5509 5506 5503 5500 5497 5495 5492 5489 5487 5484 5482 5479 5477 5475 5473 5471 5469 5468 5467 5465 5464 5463 5462 5460 5459 5457 5457 5456 5455 5454 5453 5453 5452 5452 5452 5453 5453 5454 5455 5455 5455 5456 5457 5458 5459 5461 5463
5653 5650 5647 5645 5642 5639 5637 5634 5631 5628 5625 5622 5619 5616 5613 5610 5607 5605 5602 5599 5597 5594 5591 5589 5586 5584 5581 5579 5577 5575 5572 5570 5568 5566 5564 5563 5561 5559 5557 5555 5552 5550 5547 5544 5541 5537 5534 5530 5527 5524 5520 5517 5514 5511 5508 5505 5502 5499 5496 5493 5490 5487 5485 5482 5479 5477 5474 5472 5469 5467 5465 5463 5461 5460 5458 5457 5456 5454 5453 5452 5451 5449 5448 5447 5446 5446 5445 5444 5443 5443 5443 5444 5445 5446 5447 5447 5447 5447 5448 5449 5450 5452 5454
5648 5646 5643 5640 5637 5634 5632 5629 5626 5623 5620 5617 5614 5611 5608 5605 5602 5600 5597 5594 5591 5589 5586 5583 5581 5579 5577 5574 5572 5570 5567 5565 5563 5562 5560 5558 5556 5554 5552 5549 5547 5544 5541 5537 5534 5531 5527 5524 5520 5517 5514 5511 5507 5504 5501 5498 5495 5492 5489 5486 5482 5480 5477 5474 5472 5470 5467 5464 5462 5460 5457 5455 5453 5451 5449 5448 5446 5445 5444 5443 5442 5441 5439 5438 5437 5437 5436 5435 5434 5434 5434 5435 5436 5437 5437 5438 5438 5439 5439 5440 5441 5442 5444
5644 5641 5638 5635 5632 5630 5627 5624 5621 5618 5615 5612 5609 5606 5603 5600 5597 5594 5592 5589 5586 5583 5581 5578 5576 5574 5572 5569 5567 5565 5563 5561 5559 5557 5555 5553 5551 5549 5546 5544 5541 5537 5534 5531 5527 5524 5521 5517 5514 5510 5507 5504 5501 5497 5494 5491 5488 5485 5482 5479 5475 5472 5470 5467 5465 5462 5459 5457 5454 5452 5449 5447 5445 5443 5441 5439 5437 5436 5434 5433 5432 5431 5430 5428 5427 5427 5426 5425 5425 5424 5424 5425 5426 5427 5428 5428 5429 5430 5430 5431 5431 5433 5435
5639 5636 5633 5630 5627 5625 5622 5619 5616 5613 5610 5607 5604 5601 5598 5595 5592 5589 5587 5584 5581 5578 5576 5574 5572 5569 5567 5565 5562 5561 5558 5556 5554 5552 5550 5548 5546 5543 5540 5537 5534 5531 5528 5524 5521 5517 5514 5511 5507 5504 5501 5497 5494 5491 5488 5485 5482 5478 5475 5472 5468 5465 5462 5460 5457 5454 5452 5449 5446 5443 5441 5439 5436 5434 5432 5430 5428 5426 5425 5423 5422 5420 5419 5418 5417 5416 5416 5415 5414 5414 5414 5415 5416 5417 5417 5418 5419 5420 5421 5422 5422 5424 5426
5634 5631 5628 5625 5622 5619 5617 5614 5611 5608 5605 5602 5599 5596 5593 5590 5587 5585 5582 5579 5576 5574 5571 5569 5567 5565 5562 5560 5558 5556 5553 5551 5549 5547 5545 5542 5540 5537 5534 5531 5528 5525 5522 5518 5514 5511 5507 5504 5501 5497 5494 5491 5487 5484 5481 5478 5475 5472 5468 5465 5462 5458 5455 5452 5449 5447 5444 5441 5438 5435 5432 5430 5427 5425 5422 5420 5418 5416 5415 5413 5411 5410 5409 5407 5407 5405 5405 5404 5404 5403 5404 5404 5405 5406 5407 5408 5409 5410 5411 5412 5413 5414 5416
5629 5626 5623 5620 5617 5614 5612 5609 5606 5603 5600 5597 5594 5591 5588 5585 5582 5580 5577 5574 5572 5569 5567 5564 5562 5560 5557 5555 5552 5551 5548 5546 5544 5541 5539 5537 5534 5531 5528 5525 5522 5518 5515 5512 5508 5505 5501 5497 5494 5491 5487 5484 5481 5478 5475 5472 5468 5465 5461 5458 5454 5451 5447 5444 5441 5438 5435 5432 5429 5427 5423 5420 5417 5415 5413 5411 5408 5407 5405 5403 5402 5400 5399 5398 5397 5395 5394 5394 5393 5393 5393 5394 5394 5394 5395 5397 5398 5399 5400 5401 5403 5405 5407
5623 5621 5618 5615 5612 5609 5607 5604 5601 5598 5595 5592 5589 5586 5583 5580 5577 5575 5572 5569 5567 5564 5562 5559 5557 5554 5552 5550 5547 5545 5543 5541 5538 5536 5533 5531 5528 5525 5522 5519 5516 5512 5509 5506 5502 5498 5495 5491 5487 5484 5481 5477 5474 5471 5467 5464 5461 5457 5454 5451 5447 5443 5440 5436 5433 5430 5427 5423 5420 5417 5414 5411 5408 5405 5403 5401 5399 5397 5396 5394 5393 5391 5390 5389 5387 5387 5385 5385 5384 5384 5383 5383 5384 5384 5385 5386 5387 5388 5389 5391 5392 5394 5396
5617 5615 5612 5609 5607 5604 5601 5598 5596 5593 5590 5587 5584 5581 5578 5575 5572 5570 5567 5564 5562 5559 5557 5554 5552 5549 5547 5544 5542 5540 5537 5535 5533 5531 5528 5526 5523 5520 5517 5513 5510 5507 5503 5499 5496 5492 5488 5485 5481 5477 5474 5471 5467 5464 5460 5457 5453 5450 5446 5443 5439 5436 5432 5428 5425 5422 5418 5415 5412 5408 5406 5402 5399 5397 5395 5393 5391 5389 5387 5386 5385 5383 5382 5381 5380 5379 5377 5377 5376 5375 5375 5375 5374 5374 5375 5376 5377 5377 5379 5380 5382 5383 5386
5612 5609 5606 5603 5601 5598 5595 5593 5590 5587 5584 5582 5579 5576 5573 5570 5567 5564 5562 5559 5556 5553 5551 5549 5546 5544 5542 5539 5537 5535 5533 5530 5528 5526 5523 5520 5517 5514 5511 5507 5504 5501 5497 5493 5490 5486 5482 5478 5475 5471 5467 5464 5460 5457 5453 5450 5446 5443 5439 5435 5432 5428 5424 5420 5416 5412 5410 5407 5403 5400 5397 5394 5392 5389 5387 5385 5384 5382 5381 5379 5378 5377 5375 5374 5373 5372 5371 5370 5369 5368 5367 5367 5366 5366 5366 5366 5367 5368 5369 5370 5372 5373 5375
5606 5603 5601 5598 5595 5592 5590 5587 5584 5582 5579 5576 5574 5571 5568 5565 5562 5559 5557 5554 5551 5548 5546 5543 5541 5539 5537 5534 5532 5530 5528 5526 5523 5521 5517 5514 5512 5508 5505 5502 5498 5494 5491 5487 5483 5480 5476 5472 5468 5464 5461 5457 5454 5450 5447 5443 5439 5436 5432 5428 5424 5420 5416 5412 5408 5404 5401 5398 5395 5392 5390 5387 5385 5383 5381 5379 5377 5376 5374 5372 5371 5370 5369 5368 5367 5366 5365 5364 5363 5362 5361 5360 5359 5358 5358 5358 5358 5359 5360 5361 5362 5364 5365
5601 5598 5595 5592 5589 5587 5584 5582 5579 5577 5574 5571 5568 5565 5562 5560 5557 5554 5551 5548 5546 5543 5541 5538 5537 5535 5532 5530 5528 5526 5523 5521 5518 5515 5512 5509 5506 5502 5499 5495 5492 5488 5484 5481 5477 5473 5469 5465 5462 5458 5454 5451 5447 5443 5440 5436 5432 5428 5424 5420 5416 5412 5408 5404 5400 5396 5393 5390 5388 5386 5383 5381 5379 5377 5375 5373 5371 5370 5368 5367 5365 5364 5363 5362 5361 5360 5359 5358 5357 5356 5355 5354 5352 5352 5351 5351 5351 5351 5351 5352 5353 5355 5356
5596 5593 5590 5587 5584 5582 5579 5576 5574 5571 5568 5566 5563 5560 5557 5555 5552 5549 5546 5543 5541 5538 5536 5533 5532 5530 5527 5525 5523 5521 5518 5515 5512 5510 5507 5503 5500 5496 5493 5489 5486 5482 5478 5474 5471 5467 5462 5459 5455 5451 5448 5444 5440 5437 5433 5429 5426 5421 5417 5413 5408 5404 5400 5396 5392 5389 5386 5384 5382 5379 5377 5375 5373 5372 5369 5367 5366 5364 5363 5361 5360 5358 5357 5356 5355 5354 5353 5352 5351 5350 5348 5347 5346 5345 5344 5344 5344 5343 5344 5344 5345 5346 5347
5592 5588 5585 5582 5580 5577 5574 5571 5569 5566 5563 5561 5558 5555 5552 5550 5547 5544 5542 5539 5536 5534 5531 5529 5527 5525 5523 5520 5518 5516 5513 5510 5507 5504 5501 5497 5494 5490 5487 5483 5479 5476 5472 5468 5464 5460 5456 5452 5449 5445 5441 5438 5434 5430 5427 5422 5418 5414 5410 5405 5401 5397 5393 5389 5386 5383 5380 5378 5376 5374 5372 5370 5368 5366 5364 5362 5361 5359 5357 5356 5355 5353 5352 5351 5350 5349 5348 5347 5345 5344 5342 5341 5340 5339 5338 5337 5337 5337 5337 5337 5337 5338 5339
5588 5584 5581 5578 5575 5572 5569 5567 5564 5561 5558 5556 5553 5550 5547 5545 5542 5539 5537 5534 5532 5529 5527 5525 5522 5520 5518 5515 5513 5510 5507 5505 5502 5499 5495 5492 5488 5484 5481 5477 5473 5469 5466 5462 5458 5454 5450 5447 5443 5439 5435 5431 5427 5424 5419 5415 5411 5407 5402 5398 5394 5390 5387 5383 5380 5377 5375 5373 5371 5369 5367 5365 5363 5362 5360 5358 5357 5355 5353 5352 5350 5349 5347 5346 5345 5344 5342 5341 5339 5338 5337 5336 5334 5333 5332 5331 5331 5331 5330 5330 5330 5331 5332
5584 5581 5577 5574 5571 5568 5565 5562 5559 5557 5554 5551 5548 5545 5543 5540 5537 5534 5532 5529 5527 5524 5522 5520 5517 5515 5512 5510 5507 5505 5502 5499 5497 5493 5490 5486 5482 5479 5475 5471 5467 5463 5459 5456 5452 5448 5444 5441 5437 5433 5429 5425 5421 5417 5412 5408 5404 5400 5395 5392 5388 5384 5381 5378 5375 5372 5370 5368 5366 5364 5362 5360 5358 5357 5356 5354 5353 5351 5349 5347 5346 5345 5343 5342 5340 5339 5337 5336 5334 5332 5331 5330 5328 5327 5326 5325 5325 5324 5324 5324 5324 5324 5325
5580 5576 5573 5570 5566 5563 5560 5557 5554 5552 5549 5546 5543 5541 5538 5535 5532 5529 5526 5524 5522 5519 5517 5515 5512 5510 5507 5505 5502 5500 5497 5494 5491 5487 5484 5480 5477 5473 5469 5465 5461 5457 5453 5450 5446 5442 5438 5435 5431 5427 5423 5419 5415 5410 5406 5401 5397 5393 5389 5385 5382 5379 5376 5373 5371 5368 5366 5364 5362 5360 5358 5357 5355 5353 5352 5350 5349 5347 5346 5344 5342 5340 5339 5337 5336 5334 5332 5331 5329 5327 5326 5324 5323 5322 5321 5319 5318 5318 5317 5317 5317 5317 5318
5575 5572 5568 5565 5562 5558 5556 5552 5550 5547 5544 5542 5539 5536 5533 5530 5527 5524 5522 5519 5517 5514 5512 5510 5507 5505 5502 5500 5497 5494 5491 5488 5485 5482 5478 5474 5471 5467 5463 5459 5455 5451 5447 5444 5440 5437 5433 5429 5425 5421 5417 5412 5408 5404 5399 5395 5390 5386 5382 5379 5376 5374 5371 5369 5366 5364 5362 5360 5358 5356 5354 5353 5351 5349 5348 5346 5345 5343 5342 5340 5338 5337 5335 5333 5332 5330 5328 5326 5324 5322 5321 5319 5317 5316 5315 5314 5313 5312 5311 5311 5311 5311 5311
5569 5566 5563 5560 5557 5553 5551 5548 5545 5542 5539 5537 5534 5531 5528 5525 5522 5519 5517 5514 5512 5510 5507 5505 5503 5500 5497 5495 5492 5489 5486 5482 5479 5476 5472 5468 5465 5461 5457 5453 5449 5445 5442 5438 5434 5431 5427 5423 5419 5415 5411 5406 5402 5397 5393 5388 5384 5381 5377 5374 5372 5369 5367 5364 5362 5360 5358 5356 5354 5352 5351 5349 5348 5346 5344 5343 5341 5340 5338 5337 5335 5333 5331 5329 5328 5326 5324 5322 5321 5318 5317 5315 5313 5311 5310 5308 5307 5307 5306 5305 5305 5304 5304
5564 5561 5558 5555 5552 5548 5546 5543 5540 5537 5535 5532 5529 5526 5523 5520 5517 5515 5512 5510 5508 5505 5503 5500 5498 5495 5492 5490 5487 5483 5480 5477 5473 5470 5466 5462 5459 5455 5451 5447 5443 5439 5436 5432 5429 5425 5422 5417 5413 5409 5405 5400 5396 5391 5387 5383 5379 5375 5372 5369 5367 5365 5362 5360 5358 5356 5354 5352 5351 5349 5347 5346 5344 5342 5341 5339 5337 5336 5334 5333 5331 5330 5328 5326 5325 5323 5321 5319 5317 5315 5313 5311 5309 5307 5306 5304 5303 5302 5301 5300 5299 5298 5298
5559 5556 5552 5549 5547 5543 5541 5538 5535 5532 5530 5527 5524 5521 5518 5515 5512 5510 5508 5506 5503 5501 5498 5496 5493 5490 5487 5484 5481 5478 5475 5471 5468 5464 5461 5457 5453 5449 5445 5441 5437 5434 5430 5427 5423 5420 5416 5412 5407 5403 5399 5394 5390 5385 5381 5377 5374 5370 5367 5365 5362 5360 5358 5356 5354 5352 5350 5349 5347 5346 5344 5342 5341 5339 5337 5336 5334 5332 5331 5330 5328 5327 5325 5323 5322 5320 5318 5316 5314 5312 5311 5308 5307 5305 5303 5301 5299 5298 5296 5295 5294 5293 5293
5554 5551 5547 5545 5542 5539 5536 5533 5530 5527 5525 5522 5519 5516 5513 5510 5508 5505 5503 5501 5499 5496 5494 5491 5488 5486 5482 5479 5476 5473 5469 5466 5462 5458 5455 5451 5447 5443 5439 5436 5432 5428 5425 5421 5417 5414 5410 5406 5402 5397 5393 5388 5384 5379 5376 5372 5369 5366 5363 5361 5358 5356 5354 5352 5350 5348 5347 5345 5344 5342 5341 5339 5338 5336 5334 5332 5331 5329 5328 5327 5325 5323 5322 5320 5319 5317 5315 5314 5312 5310 5308 5307 5305 5303 5301 5298 5297 5295 5294 5292 5291 5290 5289
5549 5546 5542 5539 5537 5534 5531 5528 5526 5523 5520 5517 5515 5512 5508 5506 5504 5501 5498 5496 5494 5492 5489 5486 5483 5481 5477 5474 5471 5467 5464 5460 5457 5453 5449 5445 5442 5438 5434 5430 5426 5422 5419 5415 5412 5408 5404 5400 5396 5391 5387 5382 5378 5374 5371 5367 5364 5362 5359 5357 5355 5352 5351 5349 5347 5345 5344 5342 5341 5339 5338 5336 5334 5333 5331 5330 5328 5326 5325 5323 5322 5321 5319 5317 5316 5315 5313 5311 5310 5308 5306 5304 5302 5301 5299 5297 5295 5293 5292 5290 5289 5288 5287
5544 5541 5538 5535 5532 5529 5526 5524 5521 5519 5516 5513 5510 5507 5504 5502 5499 5497 5494 5492 5490 5487 5485 5482 5478 5475 5472 5469 5465 5462 5458 5455 5451 5447 5444 5440 5436 5432 5429 5425 5421 5417 5413 5410 5406 5402 5398 5394 5390 5386 5381 5377 5373 5369 5366 5363 5360 5358 5355 5353 5351 5349 5347 5345 5344 5342 5341 5339 5338 5337 5335 5333 5332 5330 5328 5327 5325 5323 5322 5321 5319 5318 5317 5315 5314 5312 5311 5309 5307 5306 5304 5302 5301 5299 5297 5295 5293 5292 5291 5289 5288 5286 5285
5539 5536 5533 5530 5527 5524 5521 5519 5517 5514 5511 5508 5505 5502 5500 5497 5495 5493 5490 5488 5485 5483 5480 5477 5473 5470 5467 5463 5460 5457 5453 5450 5446 5442 5438 5435 5431 5427 5423 5419 5415 5412 5408 5404 5400 5397 5392 5388 5384 5380 5376 5372 5368 5365 5362 5359 5356 5354 5352 5350 5347 5345 5343 5342 5341 5339 5338 5336 5335 5333 5332 5331 5329 5327 5326 5324 5322 5321 5319 5318 5317 5316 5314 5313 5312 5310 5309 5307 5306 5304 5303 5301 5299 5297 5296 5294 5292 5291 5289 5288 5287 5286 5284
5534 5532 5528 5525 5522 5520 5517 5514 5512 5510 5507 5504 5501 5498 5495 5493 5490 5488 5486 5484 5481 5478 5475 5472 5468 5465 5462 5458 5455 5452 5448 5444 5441 5437 5433 5429 5426 5422 5418 5414 5410 5406 5402 5399 5395 5391 5387 5383 5379 5374 5371 5367 5363 5361 5357 5355 5352 5350 5348 5346 5344 5342 5340 5339 5338 5336 5335 5333 5332 5330 5329 5327 5326 5325 5323 5321 5320 5318 5317 5316 5315 5314 5312 5311 5309 5308 5307 5306 5304 5303 5302 5300 5298 5297 5295 5293 5291 5290 5288 5287 5286 5285 5283